User: anonymous   Login
Location: Ch�teau-Arnoux
(44.0814°N, 6.0027°E)
Time: 02:04:48
(UTC+00:00)
Language:

Cosmos 2360 Rocket - Orbit

View from above orbital plane
View from above orbital plane
View from above satellite
View from above satellite

Ground track
Ground track

The orbit data is extracted from the following two-line orbital elements,

1 25407U 98045B   20018.77891235  .00000185  00000-0  11848-3 0  9996
2 25407  71.0098 214.2574 0009039 218.5597 141.4881 14.15797555110028
Epoch (UTC): 18 January 2020 18:41:38
Eccentricity: 0.0009039
inclination: 71.0098°
perigee height: 833 km
apogee height: 846 km
right ascension of ascending node: 214.2574°
argument of perigee: 218.5597°
revolutions per day: 14.15797555
mean anomaly at epoch: 141.4881°
orbit number at epoch: 11002

The dashed part of the orbit path shows where the satellite is in the earth's shadow,  

DLR